Terminal Aerodrome Forecast
Issued by NWS

Home | Current Version | Previous Version | Text Only | Print | Product List | Glossary On
Versions: 1 2 3 4 5 6 7 8 9 10 11 12 13 14 15 16 17 18 19 20 21 22 23 24 25 26 27 28 29 30 31
000
FTUS44 KHGX 252052 AAB
TAFIAH
TAF AMD
KIAH 252052Z 2521/2624 VRB03KT P6SM VCTS SCT022CB BKN250
     FM260000 09006KT P6SM FEW060 BKN250
     FM260900 00000KT P6SM FEW020 BKN250
     FM261300 07005KT P6SM VCSH SCT025 BKN150
     FM261800 09005KT P6SM VCTS BKN035CB=

USA.gov is the U.S. government's official web portal to all federal, state and local government web resources and services.